CEB461 RPLL-RPVI

Flight info

Callsign CEB461
Flight time 0h 47m
Altitude 29000
Route VERDE2R VERDE W24 TAPER B472 LAMBO LAMBO2S
Aircraft A321/L-SG/S=

Departure

Time 2026-04-21 12:19
Airport Ninoy Aquino International Airport (RPLL)

Arrival

Time 2026-04-21 13:06
Airport Iloilo International Airport (RPVI)
Time Latitude Longitude Altitude Speed Heading
2026-04-21 12:03 14.52189 121.00996 82 ft 0 kts 46°
2026-04-21 12:09 14.52188 121.00996 82 ft 1 kts 46°
2026-04-21 12:10 14.52179 121.00986 82 ft 2 kts 46°
2026-04-21 12:10 14.52170 121.00977 82 ft 2 kts 46°
2026-04-21 12:10 14.52161 121.00966 82 ft 2 kts 46°
2026-04-21 12:10 14.52152 121.00956 82 ft 2 kts 46°
2026-04-21 12:11 14.52148 121.00952 82 ft 2 kts 46°
2026-04-21 12:11 14.52139 121.00942 82 ft 2 kts 46°
2026-04-21 12:11 14.52131 121.00935 82 ft 0 kts 46°
2026-04-21 12:11 14.52126 121.00929 82 ft 2 kts 39°
2026-04-21 12:12 14.52094 121.00930 82 ft 1 kts 320°
2026-04-21 12:12 14.52090 121.00934 82 ft 1 kts 310°
2026-04-21 12:12 14.52087 121.00937 82 ft 0 kts 314°
2026-04-21 12:14 14.52088 121.00936 82 ft 0 kts 314°
2026-04-21 12:14 14.52094 121.00930 82 ft 2 kts 318°
2026-04-21 12:14 14.52111 121.00913 82 ft 5 kts 314°
2026-04-21 12:14 14.52142 121.00880 82 ft 8 kts 314°
2026-04-21 12:15 14.52186 121.00835 82 ft 10 kts 315°
2026-04-21 12:15 14.52241 121.00778 82 ft 12 kts 314°
2026-04-21 12:15 14.52309 121.00707 82 ft 14 kts 315°
2026-04-21 12:15 14.52373 121.00642 82 ft 15 kts 315°
2026-04-21 12:16 14.52448 121.00565 82 ft 16 kts 315°
2026-04-21 12:16 14.52523 121.00487 82 ft 11 kts 315°
2026-04-21 12:16 14.52533 121.00476 82 ft 2 kts 315°
2026-04-21 12:16 14.52544 121.00457 82 ft 4 kts 281°
2026-04-21 12:17 14.52544 121.00414 82 ft 7 kts 268°
2026-04-21 12:17 14.52541 121.00356 82 ft 9 kts 267°
2026-04-21 12:17 14.52537 121.00283 82 ft 10 kts 266°
2026-04-21 12:17 14.52503 121.00266 82 ft 8 kts 150°
2026-04-21 12:18 14.52456 121.00309 82 ft 10 kts 135°
2026-04-21 12:18 14.52399 121.00369 82 ft 14 kts 134°
2026-04-21 12:18 14.52182 121.00593 82 ft 84 kts 135°
2026-04-21 12:18 14.51648 121.01155 82 ft 150 kts 136°
2026-04-21 12:19 14.50877 121.01942 775 ft 149 kts 134°
2026-04-21 12:19 14.50175 121.02634 1509 ft 147 kts 130°
2026-04-21 12:19 14.49442 121.03397 2091 ft 151 kts 130°
2026-04-21 12:19 14.48707 121.04174 2424 ft 155 kts 130°
2026-04-21 12:20 14.47942 121.04977 2759 ft 159 kts 131°
2026-04-21 12:20 14.47155 121.05798 3152 ft 160 kts 131°
2026-04-21 12:20 14.46381 121.06600 3510 ft 161 kts 132°
2026-04-21 12:20 14.45567 121.07443 3788 ft 172 kts 132°
2026-04-21 12:21 14.44694 121.08316 4033 ft 185 kts 140°
2026-04-21 12:21 14.43436 121.08763 4262 ft 204 kts 175°
2026-04-21 12:21 14.41958 121.08646 4509 ft 222 kts 184°
2026-04-21 12:21 14.40333 121.08439 4852 ft 246 kts 184°
2026-04-21 12:22 14.38573 121.08248 5655 ft 259 kts 183°
2026-04-21 12:22 14.36802 121.08088 6502 ft 255 kts 182°
2026-04-21 12:22 14.35007 121.07948 6989 ft 263 kts 182°
2026-04-21 12:22 14.33173 121.07822 7549 ft 267 kts 181°
2026-04-21 12:23 14.31287 121.07703 8124 ft 270 kts 181°
2026-04-21 12:23 14.29412 121.07591 8680 ft 273 kts 181°
2026-04-21 12:23 14.27482 121.07478 9238 ft 276 kts 180°
2026-04-21 12:23 14.25555 121.07368 9807 ft 279 kts 181°
2026-04-21 12:24 14.23614 121.07260 10353 ft 281 kts 181°
2026-04-21 12:24 14.21637 121.07150 10895 ft 283 kts 181°
2026-04-21 12:24 14.19655 121.07039 11426 ft 285 kts 181°
2026-04-21 12:24 14.17665 121.06928 11943 ft 287 kts 181°
2026-04-21 12:25 14.15653 121.06815 12447 ft 289 kts 181°
2026-04-21 12:25 14.13624 121.06701 12939 ft 291 kts 181°
2026-04-21 12:25 14.11596 121.06588 13417 ft 293 kts 181°
2026-04-21 12:25 14.09567 121.06475 13887 ft 294 kts 181°
2026-04-21 12:26 14.07491 121.06359 14347 ft 296 kts 181°
2026-04-21 12:26 14.05427 121.06245 14790 ft 298 kts 181°
2026-04-21 12:26 14.03369 121.06131 15226 ft 299 kts 182°
2026-04-21 12:26 14.01277 121.06016 15659 ft 300 kts 182°
2026-04-21 12:27 13.99196 121.05900 16079 ft 301 kts 182°
2026-04-21 12:27 13.97107 121.05783 16491 ft 302 kts 182°
2026-04-21 12:27 13.95008 121.05666 16884 ft 303 kts 183°
2026-04-21 12:27 13.92880 121.05547 17259 ft 304 kts 183°
2026-04-21 12:28 13.90766 121.05429 17613 ft 306 kts 183°
2026-04-21 12:28 13.88640 121.05309 17974 ft 308 kts 183°
2026-04-21 12:28 13.86481 121.05188 18334 ft 309 kts 183°
2026-04-21 12:28 13.84349 121.05068 18690 ft 310 kts 183°
2026-04-21 12:29 13.82176 121.04947 19048 ft 311 kts 183°
2026-04-21 12:29 13.80008 121.04826 19388 ft 313 kts 183°
2026-04-21 12:29 13.77821 121.04705 19734 ft 314 kts 184°
2026-04-21 12:29 13.75653 121.04584 20067 ft 315 kts 184°
2026-04-21 12:30 13.73458 121.04462 20398 ft 317 kts 184°
2026-04-21 12:30 13.71232 121.04338 20721 ft 318 kts 184°
2026-04-21 12:30 13.69044 121.04216 21031 ft 320 kts 184°
2026-04-21 12:30 13.66826 121.04092 21326 ft 322 kts 184°
2026-04-21 12:31 13.64562 121.03965 21620 ft 325 kts 184°
2026-04-21 12:31 13.62306 121.03839 21910 ft 327 kts 184°
2026-04-21 12:31 13.60013 121.03712 22212 ft 329 kts 184°
2026-04-21 12:31 13.57712 121.03584 22513 ft 331 kts 184°
2026-04-21 12:32 13.55440 121.03457 22799 ft 334 kts 184°
2026-04-21 12:32 13.53107 121.03328 23091 ft 336 kts 184°
2026-04-21 12:32 13.50764 121.03506 23354 ft 341 kts 168°
2026-04-21 12:32 13.48522 121.04408 23661 ft 346 kts 151°
2026-04-21 12:33 13.46528 121.05756 23972 ft 349 kts 147°
2026-04-21 12:33 13.44526 121.07206 24247 ft 352 kts 146°
2026-04-21 12:33 13.42512 121.08663 24549 ft 354 kts 147°
2026-04-21 12:33 13.40488 121.10108 24856 ft 356 kts 147°
2026-04-21 12:34 13.38456 121.11546 25157 ft 358 kts 147°
2026-04-21 12:34 13.36383 121.13007 25458 ft 360 kts 147°
2026-04-21 12:34 13.34326 121.14453 25755 ft 362 kts 147°
2026-04-21 12:34 13.32216 121.15934 26055 ft 364 kts 147°
2026-04-21 12:35 13.30141 121.17389 26344 ft 365 kts 147°
2026-04-21 12:35 13.28012 121.18882 26638 ft 367 kts 147°
2026-04-21 12:35 13.25903 121.20362 26923 ft 369 kts 147°
2026-04-21 12:35 13.23782 121.21849 27200 ft 371 kts 147°
2026-04-21 12:36 13.21626 121.23360 27473 ft 373 kts 147°
2026-04-21 12:36 13.19454 121.24883 27743 ft 376 kts 147°
2026-04-21 12:36 13.17287 121.26403 28016 ft 377 kts 147°
2026-04-21 12:36 13.15117 121.27924 28280 ft 380 kts 147°
2026-04-21 12:37 13.12934 121.29452 28538 ft 382 kts 147°
2026-04-21 12:37 13.10701 121.31017 28793 ft 384 kts 147°
2026-04-21 12:37 13.08505 121.32555 28960 ft 389 kts 147°
2026-04-21 12:38 13.03945 121.35744 28963 ft 407 kts 147°
2026-04-21 12:38 12.99295 121.38998 28962 ft 424 kts 147°
2026-04-21 12:39 12.94347 121.42460 28950 ft 434 kts 147°
2026-04-21 12:39 12.89381 121.45933 28932 ft 434 kts 147°
2026-04-21 12:40 12.84409 121.49409 28924 ft 434 kts 147°
2026-04-21 12:40 12.79509 121.52832 28914 ft 434 kts 147°
2026-04-21 12:41 12.74615 121.56248 28915 ft 435 kts 147°
2026-04-21 12:41 12.69829 121.59588 28913 ft 434 kts 147°
2026-04-21 12:42 12.64917 121.63013 28911 ft 434 kts 147°
2026-04-21 12:42 12.60046 121.66409 28912 ft 434 kts 147°
2026-04-21 12:43 12.55080 121.69869 28910 ft 434 kts 147°
2026-04-21 12:43 12.52552 121.71629 28713 ft 434 kts 147°
2026-04-21 12:43 12.50080 121.73352 28461 ft 431 kts 147°
2026-04-21 12:43 12.47586 121.75088 28208 ft 428 kts 147°
2026-04-21 12:44 12.45127 121.76800 27954 ft 426 kts 147°
2026-04-21 12:44 12.42696 121.78493 27703 ft 424 kts 147°
2026-04-21 12:44 12.40262 121.80186 27455 ft 423 kts 148°
2026-04-21 12:44 12.37776 121.81796 27203 ft 423 kts 151°
2026-04-21 12:45 12.35185 121.83253 26952 ft 423 kts 154°
2026-04-21 12:45 12.32516 121.84534 26701 ft 422 kts 158°
2026-04-21 12:45 12.29812 121.85723 26452 ft 423 kts 158°
2026-04-21 12:45 12.27109 121.86900 26203 ft 423 kts 158°
2026-04-21 12:46 12.24399 121.88077 25955 ft 424 kts 158°
2026-04-21 12:46 12.21671 121.89265 25705 ft 425 kts 158°
2026-04-21 12:46 12.18945 121.90451 25454 ft 424 kts 158°
2026-04-21 12:46 12.16231 121.91634 25207 ft 423 kts 158°
2026-04-21 12:47 12.13505 121.92821 24955 ft 422 kts 158°
2026-04-21 12:47 12.10819 121.93993 24708 ft 420 kts 158°
2026-04-21 12:47 12.08132 121.95164 24459 ft 419 kts 158°
2026-04-21 12:47 12.05445 121.96335 24210 ft 417 kts 158°
2026-04-21 12:48 12.02776 121.97498 23962 ft 416 kts 158°
2026-04-21 12:48 12.00133 121.98649 23714 ft 414 kts 158°
2026-04-21 12:48 11.97455 121.99814 23450 ft 413 kts 158°
2026-04-21 12:48 11.94843 122.00952 23179 ft 411 kts 158°
2026-04-21 12:49 11.92210 122.02098 22828 ft 410 kts 158°
2026-04-21 12:49 11.89564 122.03250 22399 ft 407 kts 158°
2026-04-21 12:49 11.86972 122.04378 21941 ft 404 kts 158°
2026-04-21 12:49 11.84406 122.05496 21477 ft 401 kts 158°
2026-04-21 12:50 11.81843 122.06611 21011 ft 398 kts 158°
2026-04-21 12:50 11.79294 122.07719 20542 ft 395 kts 158°
2026-04-21 12:50 11.76753 122.08823 20072 ft 393 kts 158°
2026-04-21 12:50 11.74245 122.09914 19605 ft 390 kts 157°
2026-04-21 12:51 11.71770 122.10990 19145 ft 388 kts 157°
2026-04-21 12:51 11.69274 122.12074 18682 ft 386 kts 157°
2026-04-21 12:51 11.66810 122.13145 18214 ft 384 kts 157°
2026-04-21 12:51 11.64353 122.14213 17741 ft 382 kts 157°
2026-04-21 12:52 11.61929 122.15266 17275 ft 381 kts 157°
2026-04-21 12:52 11.59470 122.16335 16801 ft 379 kts 157°
2026-04-21 12:52 11.57044 122.17387 16340 ft 378 kts 157°
2026-04-21 12:52 11.54637 122.18432 15887 ft 376 kts 157°
2026-04-21 12:53 11.52233 122.19475 15445 ft 373 kts 157°
2026-04-21 12:53 11.49848 122.20510 15005 ft 371 kts 157°
2026-04-21 12:53 11.47476 122.21538 14564 ft 369 kts 157°
2026-04-21 12:53 11.45118 122.22562 14110 ft 367 kts 157°
2026-04-21 12:54 11.42781 122.23576 13660 ft 365 kts 157°
2026-04-21 12:54 11.40445 122.24590 13207 ft 363 kts 157°
2026-04-21 12:54 11.38130 122.25593 12763 ft 360 kts 157°
2026-04-21 12:54 11.35816 122.26595 12308 ft 358 kts 157°
2026-04-21 12:55 11.33515 122.27590 11848 ft 355 kts 157°
2026-04-21 12:55 11.31248 122.28572 11405 ft 353 kts 156°
2026-04-21 12:55 11.29011 122.29541 10961 ft 350 kts 156°
2026-04-21 12:55 11.26778 122.30508 10553 ft 345 kts 156°
2026-04-21 12:56 11.24592 122.31455 10402 ft 332 kts 156°
2026-04-21 12:56 11.22502 122.32360 10267 ft 319 kts 156°
2026-04-21 12:56 11.20489 122.33232 10123 ft 307 kts 156°
2026-04-21 12:56 11.18565 122.34074 9975 ft 296 kts 153°
2026-04-21 12:57 11.16953 122.35313 9562 ft 293 kts 125°
2026-04-21 12:57 11.16177 122.37183 9173 ft 288 kts 97°
2026-04-21 12:57 11.16159 122.39209 8820 ft 285 kts 87°
2026-04-21 12:57 11.16226 122.41229 8398 ft 285 kts 88°
2026-04-21 12:58 11.16267 122.43240 7908 ft 288 kts 89°
2026-04-21 12:58 11.16292 122.45298 7442 ft 289 kts 89°
2026-04-21 12:58 11.16308 122.47334 7034 ft 288 kts 89°
2026-04-21 12:58 11.16321 122.49346 6658 ft 281 kts 89°
2026-04-21 12:59 11.16321 122.51276 6216 ft 270 kts 92°
2026-04-21 12:59 11.16058 122.53122 5900 ft 257 kts 103°
2026-04-21 12:59 11.15502 122.54845 5611 ft 254 kts 109°
2026-04-21 12:59 11.14875 122.56506 5358 ft 252 kts 109°
2026-04-21 13:00 11.14196 122.58133 5097 ft 242 kts 119°
2026-04-21 13:00 11.13030 122.59264 4932 ft 230 kts 150°
2026-04-21 13:00 11.11501 122.59653 4697 ft 225 kts 178°
2026-04-21 13:00 11.09956 122.59313 4423 ft 226 kts 196°
2026-04-21 13:01 11.08510 122.58752 4214 ft 220 kts 197°
2026-04-21 13:01 11.07082 122.58191 3965 ft 217 kts 197°
2026-04-21 13:01 11.05614 122.57631 3679 ft 230 kts 197°
2026-04-21 13:01 11.04118 122.57066 3438 ft 223 kts 196°
2026-04-21 13:02 11.02702 122.56530 3300 ft 209 kts 196°
2026-04-21 13:02 11.01386 122.56034 3176 ft 195 kts 195°
2026-04-21 13:02 10.98949 122.55125 2932 ft 180 kts 195°
2026-04-21 13:03 10.97767 122.54691 2827 ft 179 kts 195°
2026-04-21 13:03 10.96584 122.54253 2692 ft 179 kts 195°
2026-04-21 13:03 10.95412 122.53819 2453 ft 179 kts 195°
2026-04-21 13:03 10.94266 122.53395 2236 ft 172 kts 195°
2026-04-21 13:04 10.93145 122.52980 2003 ft 170 kts 196°
2026-04-21 13:04 10.92025 122.52567 1759 ft 169 kts 195°
2026-04-21 13:04 10.90917 122.52157 1534 ft 166 kts 195°
2026-04-21 13:04 10.89843 122.51759 1322 ft 162 kts 196°
2026-04-21 13:05 10.88793 122.51372 1105 ft 161 kts 195°
2026-04-21 13:05 10.87730 122.50980 864 ft 160 kts 196°
2026-04-21 13:05 10.86688 122.50587 629 ft 159 kts 196°
2026-04-21 13:05 10.85644 122.50202 446 ft 159 kts 198°
2026-04-21 13:06 10.84615 122.49811 256 ft 158 kts 196°
2026-04-21 13:06 10.83615 122.49454 142 ft 121 kts 200°
2026-04-21 13:06 10.83104 122.49262 139 ft 34 kts 198°
2026-04-21 13:06 10.82930 122.49198 139 ft 25 kts 201°
2026-04-21 13:07 10.82759 122.49135 138 ft 26 kts 200°
2026-04-21 13:07 10.82585 122.49071 136 ft 26 kts 202°
2026-04-21 13:07 10.82459 122.49024 136 ft 13 kts 201°
2026-04-21 13:07 10.82370 122.48985 136 ft 14 kts 208°
2026-04-21 13:08 10.82296 122.48957 136 ft 6 kts 158°
2026-04-21 13:08 10.82319 122.48976 136 ft 7 kts 15°
2026-04-21 13:08 10.82377 122.48994 136 ft 9 kts 18°
2026-04-21 13:08 10.82449 122.49020 136 ft 11 kts 20°
2026-04-21 13:09 10.82963 122.49210 139 ft 13 kts 18°
2026-04-21 13:09 10.83054 122.49244 139 ft 13 kts 22°
2026-04-21 13:09 10.83084 122.49317 139 ft 13 kts 104°
2026-04-21 13:09 10.83053 122.49412 139 ft 14 kts 109°
2026-04-21 13:10 10.83032 122.49503 139 ft 10 kts 75°
2026-04-21 13:10 10.83094 122.49551 139 ft 12 kts 20°
2026-04-21 13:10 10.83155 122.49573 140 ft 5 kts 21°
2026-04-21 13:10 10.83164 122.49585 140 ft 2 kts 76°
2026-04-21 13:11 10.83168 122.49603 141 ft 2 kts 70°
2026-04-21 13:11 10.83174 122.49618 141 ft 2 kts 75°
2026-04-21 13:11 10.83170 122.49641 141 ft 3 kts 107°
2026-04-21 13:11 10.83165 122.49657 141 ft 1 kts 110°
2026-04-21 13:12 10.83164 122.49659 141 ft 0 kts 109°
2026-04-21 13:12 10.83164 122.49661 141 ft 0 kts 109°